Вернуться в каталог

STARLINK-5932

АктивенСвязьVLEO
NORAD 55943·PAYLOAD·🇺🇸 United States

Запущен Mar 17, 2023 с Vandenberg Space Force Base

Loading…

Ближайшие Пролёты (ближайшие 24 часа)

TLE

СвежийSource: CelesTrak SupGP

Эпоха: Sep 14, 2026, 21:45 UTC

1 55943C 23037AF  26257.90673611  .00314020  00000+0  24970-1 0  2575
2 55943  70.0001 167.2480 0003102 267.6610 175.5702 15.00191849    14

Отслеживайте STARLINK-5932 в реальном времени с AllMySat

Download on the App Store